Location: Favalello
(42.2939°N, 9.2706°E)
Time: 20:58:02
(UTC+00:00)

Okean O Rocket - Pass Details

Date: 06 December 2019
Orbit: 624 x 644 km, 98.2° (Epoch: 22 January)

Event Time Altitude Azimuth Distance (km) Brightness Sun altitude
Rises 17:01:36 0° 200° (SSW) 2,897 5.6 -12.8°
Reaches altitude 10° 17:04:14 10° 216° (SW) 1,993 5.0 -13.2°
Maximum altitude 17:07:31 21° 266° (W) 1,411 4.4 -13.8°
Drops below altitude 10° 17:10:50 10° 316° (NW) 2,003 4.5 -14.4°
Sets 17:13:30 0° 332° (NNW) 2,915 5.2 -14.9°
